If you wish to contribute or participate in the discussions about articles you are invited to join SKYbrary as a registered user

 Actions

Futaleufú Airport

From SKYbrary Wiki

SCFT
Airport
ICAO: SCFT – IATA: FFU
Summary
Name Futaleufú Airport
Region South America and Caribbean
Territory Chile CL.gif
Location Futaleufu, Los Lagos
Serving Futaleufu
Elevation 349.91 m
1,148 ft
1,148 ft349.91 m
Type small airport
Coordinates 43° 11' 21.00" S, 71° 51' 4.00" W
Runways
Designator Length Width Surface ROPS
9/27 948 m3,110.236 ft
18 m59.055 ft
ASP /


METAR
Observation SCFT 211900Z 09013G23KT 050V110 CAVOK 25/M04 Q1022
Station FUTALEUFU
Date/Time 21 February 2020 19:00:00
Wind direction 90°
Wind speed 13 kts
Lowest cloud amount clouds and visibility OK
Temperature 25°C
Dew point
Humidity 14%
QNH 1022 hPa
Weather condition n/a

Airport located near Futaleufu, Los Lagos, Chile.

Climatology

Temperate oceanic climate (Köppen climate classification Cfb)

Maps

Terrain

Loading map...

Airport Layout

Loading map...


Accidents & Serious Incidents at or in vicinity of SCFT

None on SKYbrary